EW9366 Weather Reports


Display with metric or nautical units.
time (UTC)temp
F
wind
direction
speed
MPH
gust
MPH
rain 1hr
in
rain 24hr
in
rain mn
in
humidity
%
barometer
mb
20260905022447 86 119 0.0 1.0 0.00 0.00 0.00 59 1013.7
20260905021929 86 141 0.0 1.0 0.00 0.00 0.00 59 1013.6
20260905021429 86 140 0.0 1.0 0.00 0.00 0.00 59 1013.5
20260905020926 86 140 0.0 1.0 0.00 0.00 0.00 59 1013.5
20260905020429 86 139 0.0 1.0 0.00 0.00 0.00 59 1013.4
20260905020406 85 141 0.0 1.0 0.00 0.00 0.00 59 1013.3
20260905015643 85 141 0.0 1.0 0.00 0.00 0.00 59 1013.3
20260905014850 85 141 0.0 0.0 0.00 0.00 0.00 58 1013.1
20260905014811 85 141 0.0 0.0 0.00 0.00 0.00 58 1013.1
20260905013801 86 141 0.0 0.0 0.00 0.00 0.00 57 1013.0
20260905013258 86 141 0.0 0.0 0.00 0.00 0.00 57 1012.9
20260905013216 86 141 0.0 0.0 0.00 0.00 0.00 56 1012.9
20260905012206 87 141 0.0 0.0 0.00 0.00 0.00 55 1012.9
20260905011640 87 141 0.0 0.0 0.00 0.00 0.00 54 1012.9
20260905011115 88 141 0.0 0.0 0.00 0.00 0.00 54 1012.8
20260905010548 88 141 0.0 0.0 0.00 0.00 0.00 52 1012.7
20260905010033 89 141 0.0 0.0 0.00 0.00 0.00 51 1012.8
20260905005532 90 141 0.0 0.0 0.00 0.00 0.00 50 1012.7
20260905005027 91 141 0.0 0.0 0.00 0.00 0.00 49 1012.7
20260905004525 92 141 0.0 0.0 0.00 0.00 0.00 49 1012.6
20260905004021 93 141 0.0 0.0 0.00 0.00 0.00 46 1012.5
20260905004003 94 141 0.0 0.0 0.00 0.00 0.00 45 1012.5
20260905003444 96 141 0.0 1.0 0.00 0.00 0.00 44 1012.5
20260905002451 97 141 0.0 1.0 0.00 0.00 0.00 42 1012.5
20260905001925 98 141 0.0 1.0 0.00 0.00 0.00 42 1012.4
20260905001424 98 141 0.0 1.0 0.00 0.00 0.00 41 1012.5
20260905000912 99 143 0.0 1.0 0.00 0.00 0.00 41 1012.5
20260905000413 99 144 0.0 1.0 0.00 0.00 0.00 41 1012.4
20260905000337 99 129 0.0 1.0 0.00 0.00 0.00 42 1012.4
20260904235331 99 129 0.0 2.0 0.00 0.00 0.00 42 1012.5
20260904234758 99 160 0.0 3.0 0.00 0.00 0.00 41 1012.5
20260904234722 99 158 1.0 3.0 0.00 0.00 0.00 41 1012.5
20260904233712 100 132 0.0 2.0 0.00 0.00 0.00 41 1012.5
20260904233143 99 138 0.0 2.0 0.00 0.00 0.00 41 1012.4
20260904232643 99 138 0.0 2.0 0.00 0.00 0.00 41 1012.4
20260904232119 99 127 0.0 2.0 0.00 0.00 0.00 41 1012.5
20260904231617 99 199 0.0 3.0 0.00 0.00 0.00 42 1012.5
20260904231041 99 87 0.0 3.0 0.00 0.00 0.00 42 1012.5
20260904230515 99 156 1.0 2.0 0.00 0.00 0.00 42 1012.5
20260904230500 99 142 1.0 5.0 0.00 0.00 0.00 42 1012.5
20260904225456 98 129 1.0 5.0 0.00 0.00 0.00 43 1012.5
20260904225432 98 103 1.0 3.0 0.00 0.00 0.00 43 1012.5
20260904224455 98 199 1.0 4.0 0.00 0.00 0.00 42 1012.6
20260904223957 98 139 1.0 4.0 0.00 0.00 0.00 43 1012.6
20260904223429 97 129 0.0 3.0 0.00 0.00 0.00 44 1012.7
20260904223417 97 139 0.0 2.0 0.00 0.00 0.00 44 1012.7
20260904222403 97 139 0.0 2.0 0.00 0.00 0.00 43 1012.6
20260904221839 98 134 1.0 3.0 0.00 0.00 0.00 42 1012.7
20260904221310 99 142 1.0 4.0 0.00 0.00 0.00 41 1012.7
20260904220747 100 133 1.0 4.0 0.00 0.00 0.00 40 1012.8
20260904220235 100 128 1.0 5.0 0.00 0.00 0.00 40 1012.7
20260904215734 100 202 1.0 5.0 0.00 0.00 0.00 40 1012.8
20260904215233 100 203 0.0 2.0 0.00 0.00 0.00 40 1012.7
20260904214727 100 201 1.0 4.0 0.00 0.00 0.00 40 1012.9
20260904214226 100 103 1.0 4.0 0.00 0.00 0.00 39 1012.9
20260904213658 100 134 1.0 4.0 0.00 0.00 0.00 39 1012.9
20260904213134 100 27 1.0 4.0 0.00 0.00 0.00 39 1013.0
20260904212608 100 154 1.0 4.0 0.00 0.00 0.00 40 1013.0
20260904212044 101 132 1.0 5.0 0.00 0.00 0.00 39 1013.1
20260904211543 101 96 1.0 5.0 0.00 0.00 0.00 40 1013.1
20260904211027 101 88 1.0 3.0 0.00 0.00 0.00 40 1013.1
20260904211015 101 141 1.0 5.0 0.00 0.00 0.00 39 1013.2
20260904210006 101 230 1.0 4.0 0.00 0.00 0.00 39 1013.1
20260904205446 101 210 2.0 5.0 0.00 0.00 0.00 39 1013.2
20260904204944 101 153 1.0 5.0 0.00 0.00 0.00 40 1013.2
20260904204926 100 150 0.0 3.0 0.00 0.00 0.00 40 1013.4
20260904203945 100 134 0.0 5.0 0.00 0.00 0.00 40 1013.5
20260904203444 101 165 1.0 5.0 0.00 0.00 0.00 40 1013.6
20260904202944 100 187 1.0 3.0 0.00 0.00 0.00 40 1013.7
20260904202434 99 184 2.0 3.0 0.00 0.00 0.00 43 1013.7
20260904201934 98 155 1.0 3.0 0.00 0.00 0.00 42 1013.7
20260904201416 98 53 0.0 5.0 0.00 0.00 0.00 43 1013.7
20260904200916 98 64 1.0 5.0 0.00 0.00 0.00 42 1013.9
20260904200401 98 102 2.0 6.0 0.00 0.00 0.00 44 1014.0
20260904195904 97 119 2.0 6.0 0.00 0.00 0.00 46 1014.1
20260904195352 97 14 2.0 6.0 0.00 0.00 0.00 44 1014.1
20260904195331 98 47 2.0 7.0 0.00 0.00 0.00 42 1014.3
20260904194345 99 333 2.0 7.0 0.00 0.00 0.00 42 1014.3
20260904193841 100 9 1.0 4.0 0.00 0.00 0.00 41 1014.2
20260904193339 100 357 1.0 3.0 0.00 0.00 0.00 43 1014.3
20260904192841 100 209 1.0 5.0 0.00 0.00 0.00 41 1014.3
20260904192338 101 202 1.0 5.0 0.00 0.00 0.00 39 1014.3
20260904192322 102 139 1.0 3.0 0.00 0.00 0.00 40 1014.6
20260904191324 101 115 0.0 3.0 0.00 0.00 0.00 42 1014.6
20260904190825 100 115 1.0 3.0 0.00 0.00 0.00 44 1014.8
20260904190321 100 264 1.0 4.0 0.00 0.00 0.00 44 1014.8
20260904185818 101 262 1.0 4.0 0.00 0.00 0.00 41 1014.8
20260904185320 101 146 1.0 4.0 0.00 0.00 0.00 42 1014.9
20260904184802 101 199 1.0 4.0 0.00 0.00 0.00 42 1015.0
20260904184753 101 24 1.0 4.0 0.00 0.00 0.00 43 1015.1
20260904183745 101 184 2.0 5.0 0.00 0.00 0.00 42 1015.0
20260904183244 100 196 1.0 5.0 0.00 0.00 0.00 44 1015.0
20260904182745 101 54 1.0 4.0 0.00 0.00 0.00 42 1015.1
20260904182244 101 114 1.0 4.0 0.00 0.00 0.00 44 1015.2
20260904181739 101 244 1.0 5.0 0.00 0.00 0.00 43 1015.3
20260904181223 101 219 1.0 5.0 0.00 0.00 0.00 44 1015.2
20260904180722 100 146 2.0 5.0 0.00 0.00 0.00 46 1015.2
20260904180224 100 203 1.0 5.0 0.00 0.00 0.00 43 1015.3
20260904175717 100 137 1.0 5.0 0.00 0.00 0.00 45 1015.4
20260904175657 100 211 1.0 5.0 0.00 0.00 0.00 45 1015.4
20260904174714 100 178 1.0 5.0 0.00 0.00 0.00 46 1015.6
20260904174217 100 132 1.0 3.0 0.00 0.00 0.00 47 1015.6
20260904173701 100 179 2.0 4.0 0.00 0.00 0.00 45 1015.7
20260904173651 100 192 2.0 6.0 0.00 0.00 0.00 45 1015.8
20260904172649 100 132 1.0 6.0 0.00 0.00 0.00 46 1015.8
20260904172147 99 127 1.0 5.0 0.00 0.00 0.00 47 1015.9
20260904171626 99 288 1.0 5.0 0.00 0.00 0.00 49 1016.0
20260904171101 98 202 2.0 4.0 0.00 0.00 0.00 48 1016.1
20260904170551 98 195 2.0 4.0 0.00 0.00 0.00 48 1016.1
20260904170044 97 138 2.0 6.0 0.00 0.00 0.00 49 1016.2
20260904165528 97 203 2.0 6.0 0.00 0.00 0.00 50 1016.1
20260904165025 98 154 1.0 3.0 0.00 0.00 0.00 48 1016.2
20260904164526 97 217 1.0 4.0 0.00 0.00 0.00 50 1016.2
20260904164021 97 160 1.0 5.0 0.00 0.00 0.00 50 1016.3
20260904163512 96 103 2.0 5.0 0.00 0.00 0.00 52 1016.3
20260904163013 96 143 1.0 5.0 0.00 0.00 0.00 53 1016.4
20260904162945 96 146 1.0 4.0 0.00 0.00 0.00 53 1016.4
20260904161959 96 133 1.0 4.0 0.00 0.00 0.00 52 1016.3
20260904161459 96 196 1.0 3.0 0.00 0.00 0.00 52 1016.4
20260904160933 96 231 2.0 5.0 0.00 0.00 0.00 54 1016.3
20260904160413 96 132 2.0 5.0 0.00 0.00 0.00 52 1016.3
20260904160336 96 139 1.0 5.0 0.00 0.00 0.00 53 1016.4
20260904155333 96 257 1.0 4.0 0.00 0.00 0.00 53 1016.3
20260904155323 96 204 1.0 3.0 0.00 0.00 0.00 54 1016.4
20260904154312 96 169 1.0 3.0 0.00 0.00 0.00 55 1016.4
20260904153813 95 132 1.0 3.0 0.00 0.00 0.00 56 1016.4
20260904153315 95 195 1.0 4.0 0.00 0.00 0.00 57 1016.5
20260904152808 95 29 1.0 4.0 0.00 0.00 0.00 58 1016.5
20260904152309 95 141 0.0 3.0 0.00 0.00 0.00 58 1016.5
20260904151809 95 276 0.0 2.0 0.00 0.00 0.00 58 1016.3
20260904151306 94 212 0.0 2.0 0.00 0.00 0.00 59 1016.4
20260904150752 94 195 1.0 3.0 0.00 0.00 0.00 59 1016.4
20260904150251 93 186 1.0 3.0 0.00 0.00 0.00 60 1016.5
20260904145735 93 159 0.0 2.0 0.00 0.00 0.00 61 1016.5
20260904145232 93 152 0.0 2.0 0.00 0.00 0.00 59 1016.5
20260904144735 93 199 0.0 3.0 0.00 0.00 0.00 60 1016.4
20260904144205 92 204 0.0 3.0 0.00 0.00 0.00 61 1016.4
20260904144153 91 182 0.0 3.0 0.00 0.00 0.00 63 1016.4
20260904143141 91 158 1.0 3.0 0.00 0.00 0.00 62 1016.4
20260904142628 91 139 0.0 3.0 0.00 0.00 0.00 62 1016.4
20260904142128 90 201 0.0 3.0 0.00 0.00 0.00 63 1016.4
20260904141623 90 139 0.0 3.0 0.00 0.00 0.00 63 1016.5
20260904141058 90 141 1.0 3.0 0.00 0.00 0.00 64 1016.4
20260904140555 90 126 0.0 3.0 0.00 0.00 0.00 63 1016.4
20260904140025 91 144 0.0 1.0 0.00 0.00 0.00 62 1016.3
20260904135522 90 188 0.0 1.0 0.00 0.00 0.00 64 1016.4
20260904135448 89 125 0.0 0.0 0.00 0.00 0.00 65 1016.3
20260904134458 89 172 0.0 0.0 0.00 0.00 0.00 66 1016.3
20260904133958 88 175 0.0 0.0 0.00 0.00 0.00 68 1016.3
20260904133457 87 175 0.0 0.0 0.00 0.00 0.00 67 1016.3
20260904132929 86 80 0.0 0.0 0.00 0.00 0.00 68 1016.2
20260904132403 86 108 0.0 0.0 0.00 0.00 0.00 69 1016.2
20260904131843 85 108 0.0 0.0 0.00 0.00 0.00 71 1016.2
20260904131342 84 108 0.0 0.0 0.00 0.00 0.00 73 1016.1
20260904130821 83 108 0.0 0.0 0.00 0.00 0.00 73 1016.2
20260904130323 82 108 0.0 0.0 0.00 0.00 0.00 74 1016.1
20260904130319 82 108 0.0 0.0 0.00 0.00 0.00 74 1015.9
20260904125258 81 108 0.0 0.0 0.00 0.00 0.00 76 1015.8
20260904124755 80 108 0.0 0.0 0.00 0.00 0.00 78 1015.9
20260904124712 78 108 0.0 1.0 0.00 0.00 0.00 80 1015.9
20260904123700 77 108 0.0 1.0 0.00 0.00 0.00 83 1015.8
20260904123159 76 108 0.0 0.0 0.00 0.00 0.00 85 1015.7
20260904122631 74 129 0.0 0.0 0.00 0.00 0.00 86 1015.7
20260904122129 73 130 0.0 0.0 0.00 0.00 0.00 88 1015.7
20260904121613 72 130 0.0 0.0 0.00 0.00 0.00 88 1015.7
20260904121547 72 130 0.0 0.0 0.00 0.00 0.00 87 1015.6
20260904120610 71 130 0.0 0.0 0.00 0.00 0.00 87 1015.5
20260904120043 71 130 0.0 0.0 0.00 0.00 0.00 87 1015.6
20260904115515 71 130 0.0 0.0 0.00 0.00 0.00 87 1015.6
20260904115449 71 130 0.0 0.0 0.00 0.00 0.00 86 1015.5
20260904114506 72 130 0.0 0.0 0.00 0.00 0.00 86 1015.5
20260904114002 72 130 0.0 0.0 0.00 0.00 0.00 86 1015.5
20260904113505 72 130 0.0 0.0 0.00 0.00 0.00 85 1015.5
20260904113453 72 130 0.0 0.0 0.00 0.00 0.00 85 1015.4
20260904112457 72 130 0.0 0.0 0.00 0.00 0.00 85 1015.4
20260904111955 73 130 0.0 0.0 0.00 0.00 0.00 84 1015.4
20260904111452 73 130 0.0 0.0 0.00 0.00 0.00 84 1015.4
20260904110951 73 130 0.0 0.0 0.00 0.00 0.00 84 1015.3
20260904110425 73 130 0.0 0.0 0.00 0.00 0.00 84 1015.3
20260904105857 73 130 0.0 0.0 0.00 0.00 0.00 83 1015.3
20260904105345 73 130 0.0 0.0 0.00 0.00 0.00 83 1015.3
20260904104847 73 130 0.0 0.0 0.00 0.00 0.00 82 1015.3
20260904104318 74 130 0.0 0.0 0.00 0.00 0.00 83 1015.2
20260904103816 74 130 0.0 0.0 0.00 0.00 0.00 81 1015.3
20260904103729 74 130 0.0 0.0 0.00 0.00 0.00 81 1015.2
20260904103227 74 130 0.0 0.0 0.00 0.00 0.00 81 1015.2
20260904102238 74 130 0.0 0.0 0.00 0.00 0.00 81 1015.1
20260904101733 75 130 0.0 0.0 0.00 0.00 0.00 81 1015.1
20260904101202 75 130 0.0 0.0 0.00 0.00 0.00 80 1015.1
20260904100649 75 130 0.0 0.0 0.00 0.00 0.00 80 1015.0
20260904100122 75 130 0.0 0.0 0.00 0.00 0.00 80 1015.0
20260904095556 76 130 0.0 0.0 0.00 0.00 0.00 80 1014.8
20260904095034 76 130 0.0 0.0 0.00 0.00 0.00 80 1014.8
20260904094529 76 130 0.0 0.0 0.00 0.00 0.00 80 1014.8
20260904094026 76 130 0.0 0.0 0.00 0.00 0.00 79 1014.8
20260904093458 76 129 0.0 0.0 0.00 0.00 0.00 79 1014.7
20260904092933 76 130 0.0 0.0 0.00 0.00 0.00 80 1014.7
20260904092424 76 130 0.0 0.0 0.00 0.00 0.00 80 1014.5
20260904091922 76 162 0.0 0.0 0.00 0.00 0.00 80 1014.5
20260904091421 75 162 0.0 0.0 0.00 0.00 0.00 80 1014.5
20260904091407 75 172 0.0 0.0 0.00 0.00 0.00 80 1014.6
20260904090418 76 172 0.0 0.0 0.00 0.00 0.00 80 1014.6
20260904090404 75 172 0.0 0.0 0.00 0.00 0.00 80 1014.6
20260904085353 76 179 0.0 0.0 0.00 0.00 0.00 79 1014.6
20260904085335 76 179 0.0 0.0 0.00 0.00 0.00 79 1014.6
20260904084349 76 179 0.0 0.0 0.00 0.00 0.00 79 1014.6
20260904083847 76 179 0.0 0.0 0.00 0.00 0.00 79 1014.6
20260904083345 76 179 0.0 0.0 0.00 0.00 0.00 79 1014.6
20260904082815 76 179 0.0 1.0 0.00 0.00 0.00 79 1014.6
20260904082800 76 179 0.0 1.0 0.00 0.00 0.00 80 1014.5
20260904081816 76 300 0.0 1.0 0.00 0.00 0.00 80 1014.5
20260904081315 76 302 0.0 1.0 0.00 0.00 0.00 80 1014.5
20260904080747 76 302 0.0 0.0 0.00 0.00 0.00 79 1014.5
20260904080244 76 302 0.0 0.0 0.00 0.00 0.00 80 1014.5
20260904075732 76 302 0.0 0.0 0.00 0.00 0.00 79 1014.5
20260904075234 76 302 0.0 0.0 0.00 0.00 0.00 79 1014.6
20260904074707 76 302 0.0 0.0 0.00 0.00 0.00 79 1014.6
20260904074202 76 302 0.0 0.0 0.00 0.00 0.00 78 1014.6
20260904073654 76 302 0.0 0.0 0.00 0.00 0.00 78 1014.6
20260904073152 76 303 0.0 0.0 0.00 0.00 0.00 78 1014.6
20260904072624 76 302 0.0 0.0 0.00 0.00 0.00 78 1014.5
20260904072122 76 303 0.0 0.0 0.00 0.00 0.00 78 1014.6
20260904072039 76 303 0.0 0.0 0.00 0.00 0.00 77 1014.5
20260904071537 76 302 0.0 0.0 0.00 0.00 0.00 77 1014.6
20260904070541 76 303 0.0 0.0 0.00 0.00 0.00 77 1014.6
20260904070045 76 302 0.0 0.0 0.00 0.00 0.00 77 1014.7
20260904070009 77 302 0.0 0.0 0.00 0.00 0.00 77 1014.7
20260904065015 77 302 0.0 0.0 0.00 0.00 0.00 77 1014.6
20260904064936 77 303 0.0 0.0 0.00 0.00 0.00 77 1014.6
20260904063928 77 302 0.0 0.0 0.00 0.00 0.00 76 1014.7
20260904063355 77 302 0.0 0.0 0.00 0.00 0.00 77 1014.6
20260904062851 77 302 0.0 0.0 0.00 0.00 0.00 76 1014.6
20260904062347 77 303 0.0 0.0 0.00 0.00 0.00 76 1014.7
20260904061829 78 303 0.0 0.0 0.00 0.00 0.00 75 1014.7
20260904061332 78 303 0.0 0.0 0.00 0.00 0.00 76 1014.6
20260904060806 78 303 0.0 0.0 0.00 0.00 0.00 75 1014.6
20260904060238 78 303 0.0 0.0 0.00 0.00 0.00 74 1014.6
20260904055737 78 303 0.0 0.0 0.00 0.00 0.00 74 1014.6
20260904055229 78 303 0.0 0.0 0.00 0.00 0.00 74 1014.6
20260904054726 78 303 0.0 0.0 0.00 0.00 0.00 74 1014.6
20260904054158 78 303 0.0 0.0 0.00 0.00 0.00 74 1014.6
20260904054145 78 303 0.0 0.0 0.00 0.00 0.00 74 1014.6
20260904053129 78 303 0.0 1.0 0.00 0.00 0.00 74 1014.3
20260904052624 78 303 0.0 0.0 0.00 0.00 0.00 73 1014.5
20260904052056 78 303 0.0 0.0 0.00 0.00 0.00 72 1014.3
20260904051554 78 303 0.0 0.0 0.00 0.00 0.00 72 1014.3
20260904051032 79 303 0.0 0.0 0.00 0.00 0.00 71 1014.3
20260904050504 79 303 0.0 0.0 0.00 0.00 0.00 70 1014.2
20260904050002 79 303 0.0 1.0 0.00 0.00 0.00 70 1014.2
20260904045500 80 303 0.0 1.0 0.00 0.00 0.00 69 1014.5
20260904044936 80 303 0.0 1.0 0.00 0.00 0.00 68 1014.3
20260904044440 81 303 0.0 1.0 0.00 0.00 0.00 68 1014.3
20260904044400 81 303 0.0 1.0 0.00 0.00 0.00 68 1014.3
20260904043351 81 303 0.0 1.0 0.00 0.00 0.00 69 1014.3
20260904042852 81 304 0.0 1.0 0.00 0.00 0.00 68 1014.3
20260904042347 81 304 0.0 0.0 0.00 0.00 0.00 68 1014.3
20260904041851 81 303 0.0 0.0 0.00 0.00 0.00 67 1014.3
20260904041328 82 303 0.0 1.0 0.00 0.00 0.00 67 1014.3
20260904040829 82 306 0.0 0.0 0.00 0.00 0.00 67 1014.3
20260904040311 82 306 0.0 0.0 0.00 0.00 0.00 67 1014.3
20260904035811 81 305 0.0 0.0 0.00 0.00 0.00 67 1014.3
20260904035312 82 305 0.0 0.0 0.00 0.00 0.00 66 1014.3
20260904034745 82 305 0.0 0.0 0.00 0.00 0.00 66 1014.3
20260904034240 82 305 0.0 0.0 0.00 0.00 0.00 66 1014.2
20260904033737 82 305 0.0 0.0 0.00 0.00 0.00 65 1014.3
20260904033237 82 305 0.0 0.0 0.00 0.00 0.00 65 1014.3
20260904032736 82 305 0.0 0.0 0.00 0.00 0.00 65 1014.2
20260904032234 83 305 0.0 0.0 0.00 0.00 0.00 65 1014.2
20260904031736 83 305 0.0 2.0 0.00 0.00 0.00 65 1014.2
20260904031650 83 307 0.0 2.0 0.00 0.00 0.00 65 1014.2
20260904030702 83 195 0.0 0.0 0.00 0.00 0.00 64 1014.2
20260904030200 83 195 0.0 0.0 0.00 0.00 0.00 64 1014.2
20260904025703 83 195 0.0 0.0 0.00 0.00 0.00 64 1014.2
20260904025139 83 195 0.0 0.0 0.00 0.00 0.00 64 1014.2
20260904024638 83 198 0.0 0.0 0.00 0.00 0.00 64 1013.9
20260904024614 83 198 0.0 0.0 0.00 0.00 0.00 64 1013.9
20260904023605 83 170 0.0 0.0 0.00 0.00 0.00 64 1013.9
20260904023044 83 170 0.0 0.0 0.00 0.00 0.00 64 1013.7